Location: Dzierzno
(50.6159°N, 19.2852°E)
Time: 20:38:00
(UTC+00:00)

IRS-1C - Pass Details

Date: 18 November 2025
Orbit: 813 x 814 km, 99.0° (Epoch: 10 December)

Event Time Altitude Azimuth Distance (km) Brightness Sun altitude
Rises 15:33:57 0° 147° (SSE) 3,329 7.2 -6.7°
Reaches altitude 10° 15:36:19 10° 143° (SE) 2,401 6.4 -7.0°
Maximum altitude 15:41:28 54° 67° (ENE) 986 4.2 -7.8°
Drops below altitude 10° 15:46:39 10° 352° (N) 2,416 6.5 -8.6°
Sets 15:49:03 0° 348° (NNW) 3,352 7.2 -8.9°
